[[{"header":{"parameterUnit":"m.s-1","parameterCategory":1,"la1":30.2991,"la2":30.254,"lo1":-89.0895,"lo2":-89.0444,"dy":0.0017,"dx":0.0017,"nx":28,"ny":28,"refTime":"2025-01-26T09:00:00:Z","depth":0,"parameterNumber":2,"parameterNumberName":"U-component_of_WINDS"},"data":[0,0,0,0,0,0,0,0,0,0,0,0,0,0,0,0,0,0,0,0,0,0,0,0,0,0,0,0,0,0,0,0,0,0,0,0,0,0,0,0,0,0,0,0,0,0,0,0,0,0,0,0,0,0,0,0,0,0,-3.1898,-3.1899,0,-3.196,-3.1961,-3.1961,-3.1943,-3.1942,-3.1941,-3.194,-3.2006,-3.2009,-3.2012,0,0,0,0,0,0,0,0,0,0,0,0,0,-3.1768,-3.177,-3.1898,-3.1899,-3.19,-3.196,-3.1961,-3.1962,-3.1944,-3.1942,-3.1941,-3.1939,-3.2005,-3.2009,-3.2012,0,0,0,0,0,0,0,0,0,0,0,0,0,-3.1827,-3.1771,-3.1898,-3.1898,-3.1899,-3.196,-3.1961,-3.1962,-3.1944,-3.1942,-3.194,-3.1938,-3.2004,-3.2008,-3.2013,-3.2079,0,0,-3.2026,-3.2028,0,0,0,0,0,0,0,0,-3.1823,-3.1832,-3.1897,-3.1898,-3.1899,-3.1942,-3.1939,-3.2001,-3.1944,-3.1927,-3.194,-3.1937,-3.1987,-3.1992,-3.2008,-3.2082,-3.2085,-3.2027,-3.2029,-3.2031,-3.2033,0,0,0,0,0,0,0,-3.1819,-3.1829,-3.1923,-3.1898,-3.1899,-3.1896,-3.1902,-3.1951,-3.1967,-3.1928,-3.1927,-3.1934,-3.1987,-3.2004,-3.201,-3.2086,-3.2027,-3.2031,-3.2033,-3.2035,-3.2217,-3.2219,0,0,0,0,0,0,-3.1814,-3.1826,-3.1921,-3.1925,-3.1855,-3.19,-3.1907,-3.193,-3.1966,-3.197,-3.1936,-3.1933,-3.1997,-3.2005,-3.2012,-3.2092,-3.2031,-3.2035,-3.2038,-3.2215,-3.2218,-3.222,0,0,0,0,0,0,-3.1812,-3.1823,-3.1918,-3.1875,-3.1887,-3.1904,-3.1931,-3.1932,-3.195,-3.1972,-3.1975,-3.1951,-3.1996,-3.2006,-3.2062,-3.2094,-3.2037,-3.2042,-3.2212,-3.2216,-3.2219,-3.2251,0,0,0,0,0,0,-3.1808,-3.1822,-3.1846,-3.1875,-3.1889,-3.1966,-3.1932,-3.1935,-3.1957,-3.1954,-3.1987,-3.199,-3.1995,-3.2056,-3.2067,-3.2099,-3.2045,-3.221,-3.2214,-3.2218,-3.2247,-3.2255,-3.2262,0,0,0,0,0,-3.1803,-3.1854,-3.1848,-3.1859,-3.192,-3.1968,-3.1976,-3.198,-3.196,-3.1985,-3.1999,-3.1989,-3.2089,-3.2061,-3.2074,-3.2108,-3.2208,-3.2213,-3.2217,-3.2244,-3.2254,-3.2262,0,0,0,0,0,0,-3.1829,-3.1858,-3.1851,-3.1912,-3.1938,-3.1965,-3.1997,-3.199,-3.2023,-3.2019,-3.2024,-3.2031,-3.2089,-3.2104,-3.2073,-3.2174,-3.2145,-3.2153,-3.2161,-3.2171,-3.2178,-3.2173,-3.2049,0,0,0,0,0,-3.1842,-3.1878,-3.1901,-3.1953,-3.1966,-3.1979,-3.2001,-3.2002,-3.2029,-3.204,-3.2058,-3.2086,-3.2123,-3.2148,-3.2184,-3.225,-3.2257,-3.2279,-3.2287,-3.2292,-3.2299,-3.2335,-3.2345,-3.2236,-3.2236,-3.2236,0,0,-3.1869,-3.1889,-3.1911,-3.1959,-3.1978,-3.2017,-3.1989,-3.203,-3.2059,-3.2046,-3.21,-3.2115,-3.2146,-3.2208,-3.2236,-3.2222,-3.2331,-3.2299,-3.2303,-3.2306,-3.2341,-3.2351,-3.2361,-3.2239,-3.2239,-3.2238,0,0,-3.1937,-3.1955,-3.2,-3.2021,-3.2051,-3.2059,-3.207,-3.2099,-3.2108,-3.2162,-3.2153,-3.2188,-3.2253,-3.2275,-3.2295,-3.2372,-3.2364,-3.2384,-3.2422,-3.2457,-3.2466,-3.2473,-3.2501,-3.2511,-3.2391,-3.2391,-3.2391,0,-3.1966,-3.2022,-3.2025,-3.2067,-3.2088,-3.2078,-3.2124,-3.2144,-3.2185,-3.2201,-3.2185,-3.2265,-3.2286,-3.2352,-3.2371,-3.2388,-3.2401,-3.238,-3.2464,-3.2472,-3.2479,-3.2505,-3.2515,-3.2393,-3.2393,-3.2392,-3.2392,0,-3.2057,-3.2096,-3.2129,-3.2168,-3.2193,-3.2237,-3.2247,-3.2273,-3.2272,-3.2283,-3.2338,-3.2362,-3.2403,-3.2419,-3.2419,-3.2486,-3.2476,-3.2462,-3.2434,-3.2491,-3.2516,-3.2526,-3.2396,-3.2395,-3.2394,-3.2394,0,0,-3.2143,-3.2182,-3.2194,-3.2211,-3.2244,-3.2275,-3.2319,-3.2358,-3.2379,-3.2408,-3.2446,-3.2501,-3.2488,-3.251,-3.2513,-3.2544,-3.2604,-3.2526,-3.2527,-3.2539,-3.2679,-3.2689,-3.2701,-3.2599,-3.2601,-3.2602,-3.2677,0,-3.2213,-3.2289,-3.2293,-3.2363,-3.2399,-3.239,-3.2429,-3.2454,-3.2465,-3.2499,-3.2512,-3.255,-3.2531,-3.2544,-3.2575,-3.259,-3.2632,-3.2585,-3.2634,-3.2636,-3.2626,-3.2714,-3.2725,-3.2793,-3.2686,-3.2688,-3.2689,0,-3.2306,-3.2336,-3.2409,-3.2436,-3.2452,-3.2486,-3.2522,-3.2554,-3.2582,-3.2589,-3.2614,-3.2612,-3.2659,-3.2629,-3.2693,-3.2661,-3.2682,-3.2692,-3.2695,-3.27,-3.2666,-3.272,-3.2815,-3.2826,-3.2704,-3.2703,-3.2702,0,-3.236,-3.242,-3.2471,-3.2486,-3.252,-3.2544,-3.2559,-3.2586,-3.2609,-3.2641,-3.2656,-3.2693,-3.2714,-3.2743,-3.2752,-3.2729,-3.2816,-3.2787,-3.2823,-3.2823,-3.2841,-3.284,-3.294,-3.2855,-3.2855,-3.2855,-3.2855,0,-3.2438,-3.2483,-3.2496,-3.2527,-3.2578,-3.2582,-3.2632,-3.2646,-3.267,-3.2705,-3.2701,-3.2734,-3.2743,-3.2778,-3.2786,-3.2838,-3.2847,-3.2854,-3.2856,-3.2854,-3.2853,-3.2868,-3.2863,-3.2858,-3.2857,-3.2857,-3.2856,0,-3.2508,-3.2518,-3.2573,-3.26,-3.2608,-3.2644,-3.2668,-3.2699,-3.2709,-3.2754,-3.2764,-3.2782,-3.2823,-3.2835,-3.2885,-3.289,-3.2951,-3.2948,-3.2941,-3.294,-3.2976,-3.2972,-3.3089,-3.3104,-3.3009,-3.301,-3.3011,0,-3.2557,-3.2591,-3.2621,-3.2644,-3.266,-3.2696,-3.2719,-3.2726,-3.275,-3.2785,-3.2812,-3.2853,-3.2885,-3.2952,-3.2969,-3.3008,-3.3006,-3.3044,-3.3011,-3.3009,-3.3006,-3.3003,-3.3007,-3.305,-3.3051,-3.3052,-3.3052,0,-3.2642,-3.2646,-3.2678,-3.2713,-3.2741,-3.2769,-3.2796,-3.2815,-3.2826,-3.2854,-3.2895,-3.292,-3.2971,-3.3011,-3.305,-3.3067,-3.3062,-3.3062,-3.3073,-3.3072,-3.3066,-3.3069,-3.2957,-3.306,-3.3059,-3.3058,-3.3058,-3.3058,-3.2703,-3.2733,-3.2758,-3.2795,-3.2816,-3.2842,-3.2872,-3.2886,-3.292,-3.2961,-3.2963,-3.3008,-3.3037,-3.3088,-3.3107,-3.3143,-3.3132,-3.3147,-3.3151,-3.3154,-3.3157,-3.306,-3.3151,-3.315,-3.315,-3.315,-3.315,0,-3.2788,-3.2804,-3.2838,-3.2875,-3.2905,-3.2896,-3.2926,-3.2951,-3.2991,-3.3017,-3.3049,-3.3097,-3.3136,-3.3157,-3.3196,-3.3221,-3.322,-3.3231,-3.3229,-3.3233,-3.3165,-3.3152,-3.3232,-3.3232,-3.3232,-3.3232,-3.3232,-3.3232,-3.2835,-3.2885,-3.2892,-3.2953,-3.2969,-3.3012,-3.303,-3.3053,-3.3074,-3.3127,-3.316,-3.3173,-3.3197,-3.3238,-3.3274,-3.328,-3.3294,-3.3307,-3.3311,-3.3247,-3.3238,-3.323,-3.3218,-3.331,-3.331,-3.3376,-3.3377,-3.3377]},{"header":{"parameterUnit":"m.s-1","parameterCategory":1,"la1":30.2991,"la2":30.254,"lo1":-89.0895,"lo2":-89.0444,"dy":0.0017,"dx":0.0017,"nx":28,"ny":28,"refTime":"2025-01-26T09:00:00:Z","depth":0,"parameterNumber":3,"parameterNumberName":"V-component_of_WINDS"},"data":[0,0,0,0,0,0,0,0,0,0,0,0,0,0,0,0,0,0,0,0,0,0,0,0,0,0,0,0,0,0,0,0,0,0,0,0,0,0,0,0,0,0,0,0,0,0,0,0,0,0,0,0,0,0,0,0,0,0,2.8978,2.8979,0,2.9032,2.9033,2.9034,2.9091,2.9092,2.9092,2.9093,2.9148,2.9148,2.9149,0,0,0,0,0,0,0,0,0,0,0,0,0,2.8923,2.8924,2.8978,2.8979,2.8979,2.9032,2.9033,2.9034,2.9091,2.9092,2.9093,2.9094,2.9147,2.9148,2.9149,0,0,0,0,0,0,0,0,0,0,0,0,0,2.8959,2.8924,2.8978,2.9014,2.9018,2.9032,2.9033,2.9034,2.9091,2.9092,2.9093,2.9094,2.9147,2.9148,2.9149,2.9132,0,0,2.9152,2.9153,0,0,0,0,0,0,0,0,2.8957,2.8961,2.9008,2.9012,2.9016,2.9056,2.9034,2.9067,2.909,2.9063,2.9093,2.9095,2.9116,2.912,2.9127,2.9134,2.9137,2.9152,2.9153,2.9154,2.9154,0,0,0,0,0,0,0,2.8954,2.8959,2.8999,2.9009,2.9013,2.9028,2.9034,2.904,2.9082,2.9065,2.907,2.9075,2.9118,2.9126,2.9129,2.9137,2.9152,2.9153,2.9154,2.9154,2.9135,2.9134,0,0,0,0,0,0,2.8946,2.8956,2.8998,2.9001,2.8989,2.9028,2.9035,2.9042,2.9082,2.9089,2.9074,2.9078,2.9124,2.9128,2.9131,2.9116,2.9154,2.9155,2.9155,2.9136,2.9135,2.9134,0,0,0,0,0,0,2.8945,2.8949,2.8996,2.898,2.8987,2.9027,2.9035,2.9042,2.905,2.9089,2.9097,2.9075,2.9125,2.913,2.9132,2.9118,2.9155,2.9156,2.9138,2.9136,2.9134,2.9082,0,0,0,0,0,0,2.8943,2.8949,2.8942,2.8979,2.8988,2.8995,2.9034,2.9043,2.9052,2.9057,2.9091,2.9098,2.9126,2.913,2.9133,2.912,2.9157,2.9139,2.9137,2.9135,2.9086,2.9079,2.9074,0,0,0,0,0,2.8941,2.8925,2.8942,2.8946,2.8981,2.8994,2.8999,2.9032,2.9051,2.9045,2.907,2.9097,2.9119,2.913,2.9133,2.9121,2.914,2.9138,2.9135,2.9088,2.908,2.9074,0,0,0,0,0,0,2.8884,2.893,2.895,2.8945,2.8965,2.9004,2.8998,2.9022,2.9038,2.9042,2.9082,2.9089,2.9087,2.9104,2.9115,2.9107,2.9133,2.9131,2.9097,2.9089,2.9084,2.908,2.9158,0,0,0,0,0,2.8871,2.8879,2.8918,2.891,2.892,2.8957,2.8964,2.8988,2.9011,2.9019,2.9044,2.9065,2.9077,2.9084,2.9097,2.9088,2.9097,2.9081,2.9075,2.907,2.9068,2.9067,2.9061,2.9125,2.9125,2.9125,0,0,2.8844,2.8871,2.8873,2.89,2.8919,2.8926,2.8964,2.8969,2.8975,2.902,2.9025,2.9043,2.9069,2.9066,2.9066,2.9081,2.9053,2.9067,2.9062,2.9064,2.9064,2.9058,2.9053,2.9123,2.9124,2.9124,0,0,2.88,2.882,2.8817,2.8835,2.8863,2.8888,2.8887,2.8922,2.8937,2.8942,2.8976,2.8983,2.9002,2.902,2.9031,2.8995,2.9021,2.8998,2.8967,2.8965,2.896,2.8956,2.8945,2.894,2.8995,2.8995,2.8995,0,2.8763,2.8776,2.8811,2.8816,2.8827,2.8869,2.8866,2.8882,2.8912,2.892,2.8935,2.8961,2.8981,2.8984,2.8975,2.8982,2.8984,2.8995,2.8958,2.8954,2.8951,2.8941,2.8936,2.8992,2.8993,2.8993,2.8993,0,2.873,2.8738,2.8732,2.8762,2.8773,2.8773,2.8809,2.8816,2.8839,2.8862,2.8868,2.8893,2.8913,2.8915,2.8937,2.8922,2.893,2.8951,2.8978,2.8942,2.8933,2.8929,2.8988,2.8989,2.899,2.8991,0,0,2.8652,2.8702,2.87,2.8715,2.8749,2.8756,2.8759,2.8779,2.8785,2.8804,2.8809,2.8824,2.8845,2.8857,2.8882,2.888,2.8852,2.8902,2.8903,2.8893,2.8839,2.8824,2.8819,2.8869,2.8868,2.8867,2.8838,0,2.8615,2.8624,2.8656,2.8655,2.8664,2.8704,2.8707,2.8728,2.875,2.8761,2.8785,2.8796,2.8821,2.883,2.883,2.8855,2.8842,2.8858,2.8874,2.8874,2.8869,2.8814,2.8799,2.8769,2.8834,2.8834,2.8833,0,2.8574,2.8592,2.8592,2.8628,2.8633,2.8635,2.8657,2.8666,2.8692,2.8708,2.8723,2.875,2.8756,2.878,2.879,2.88,2.8808,2.8822,2.8822,2.8826,2.8853,2.8819,2.876,2.8757,2.8828,2.8828,2.8829,0,2.8519,2.8544,2.8548,2.8559,2.86,2.8601,2.8618,2.8645,2.8655,2.8674,2.8682,2.87,2.8711,2.8725,2.8757,2.8772,2.8764,2.879,2.8778,2.8778,2.8776,2.8776,2.872,2.8778,2.8778,2.8778,2.8778,0,2.8476,2.8475,2.8524,2.8527,2.8527,2.8564,2.8564,2.8584,2.8608,2.8616,2.865,2.8657,2.8698,2.8709,2.8734,2.8739,2.8743,2.8757,2.8764,2.8755,2.8754,2.8763,2.8766,2.8777,2.8777,2.8778,2.8778,0,2.8416,2.8449,2.8456,2.8495,2.8505,2.8503,2.8537,2.8541,2.8565,2.8574,2.8579,2.8616,2.8632,2.8665,2.8688,2.8705,2.8705,2.8716,2.8697,2.8702,2.8689,2.869,2.8638,2.8634,2.8692,2.8692,2.8691,0,2.8387,2.8388,2.8427,2.8435,2.8451,2.8463,2.8474,2.8511,2.8521,2.8551,2.8552,2.857,2.8587,2.8609,2.8639,2.8658,2.8671,2.8651,2.8674,2.8666,2.8673,2.8674,2.8675,2.8647,2.8646,2.8645,2.8645,0,2.8334,2.835,2.8365,2.8386,2.8399,2.8417,2.8437,2.8442,2.8483,2.8493,2.851,2.8523,2.8548,2.8566,2.8589,2.8607,2.8633,2.8637,2.8636,2.8628,2.8617,2.8625,2.8685,2.8639,2.8639,2.864,2.864,2.864,2.829,2.8293,2.8322,2.8338,2.8357,2.8375,2.8382,2.8407,2.8421,2.8445,2.8466,2.8481,2.8508,2.8542,2.8558,2.8571,2.8584,2.8581,2.8581,2.858,2.8577,2.8614,2.8575,2.8575,2.8575,2.8575,2.8576,0,2.824,2.8261,2.8275,2.8303,2.8315,2.8339,2.8363,2.8372,2.8385,2.8408,2.8424,2.8443,2.8461,2.8493,2.8513,2.8517,2.853,2.8522,2.8523,2.8527,2.8563,2.8564,2.8511,2.8511,2.8511,2.8511,2.8512,2.8512,2.8216,2.8223,2.8242,2.826,2.828,2.8296,2.8307,2.8325,2.8344,2.8364,2.838,2.84,2.8427,2.845,2.8468,2.8476,2.8483,2.8472,2.8484,2.8518,2.8524,2.853,2.853,2.8472,2.8472,2.8447,2.8447,2.8447]}]]